Terug naar catalogus

FENGYUN 1C DEB

ActiefPO
NORAD 31443·DEBRIS·🇨🇳 China

Gelanceerd May 10, 1999 vanaf Taiyuan Satellite Launch Center

Loading…

Volgende Passages (komende 24 uur)

TLE

VersSource: Space-Track

Epoch: Sep 14, 2026, 13:52 UTC

1 31443U 99025BUF 26257.57781717  .00002304  00000-0  47431-3 0  9996
2 31443  99.2281  28.0736 0183013 355.6728   4.2874 14.51711648709409

Volg FENGYUN 1C DEB in realtime met AllMySat

Download on the App Store